Wind_Speed
21 21 21 21 21 20 20 20 20 20 20 19 19 19 18 19 19 19 18 18 18 19 19 19 19 19 19 19 19 18 18 18 18 18 17 17 17 16 16 16 16 15 15 15 15 14 14 13 13
21 21 22 22 22 20 20 20 20 20 19 20 20 20 20 20 20 20 20 20 20 20 20 20 21 21 21 21 21 20 20 19 19 19 19 18 18 18 17 17 17 17 17 16 16 16 15 15 14
22 22 22 23 22 21 21 21 21 20 20 21 21 21 20 21 21 21 22 22 22 22 22 22 22 22 23 22 22 22 22 21 21 20 20 20 19 19 19 18 18 18 18 18 18 18 17 16 15
23 23 24 24 23 22 22 23 22 21 22 22 22 22 21 21 22 22 23 23 23 23 24 23 23 23 24 24 24 24 24 24 23 23 22 22 21 21 20 20 20 20 19 19 20 20 19 19 18
24 24 24 24 23 23 23 25 24 24 24 24 24 23 23 23 23 23 23 24 24 25 25 26 25 25 25 25 26 26 26 26 25 25 24 23 23 22 22 21 21 22 22 21 21 21 21 20 20
25 25 25 24 24 24 25 25 26 26 26 26 26 25 25 25 24 24 25 25 26 26 26 27 27 26 26 26 27 27 27 28 27 27 26 25 25 24 24 23 23 23 23 23 23 22 22 22 21
25 26 26 25 25 25 26 27 27 28 28 28 28 27 26 27 26 26 26 26 27 27 27 27 28 28 28 27 28 29 29 29 29 29 28 27 26 26 25 25 25 24 24 25 25 24 23 23 23
26 27 26 26 26 27 28 29 29 29 30 30 30 29 29 28 28 28 28 28 28 28 28 28 28 29 30 30 30 30 30 30 30 30 30 29 28 28 27 26 26 26 26 25 25 25 25 25 24
28 28 27 26 27 28 29 30 30 31 31 31 31 31 31 30 30 29 29 29 30 30 30 30 30 30 31 31 31 31 32 32 32 32 31 31 30 29 29 29 27 28 28 28 28 27 26 26 25
29 29 27 27 28 28 29 30 30 31 31 32 32 32 32 31 31 31 31 31 31 31 31 32 32 32 32 32 32 33 33 34 33 34 33 33 32 31 31 30 30 30 30 29 29 27 27 27 27
30 30 29 29 29 30 31 31 31 31 31 32 33 33 33 33 32 32 32 32 32 32 32 32 33 33 33 33 33 34 34 35 34 34 34 34 34 33 32 32 32 32 32 31 31 30 29 29 29
32 32 32 31 31 32 32 32 32 32 32 32 33 34 34 34 33 33 33 33 33 34 33 33 33 34 34 34 34 34 34 35 35 35 36 36 36 35 34 33 34 33 33 33 33 33 32 31 31
32 33 33 33 33 33 34 34 34 33 33 34 34 34 34 35 35 34 34 34 34 34 34 34 34 35 35 35 35 35 34 35 36 36 37 37 37 37 37 35 35 35 34 34 34 34 33 33 33
32 33 33 34 34 34 35 35 36 34 34 35 35 35 35 35 35 35 35 35 35 35 34 35 35 36 36 36 36 36 36 36 37 38 38 38 39 39 39 39 38 36 36 36 35 35 35 35 34
33 33 34 34 35 36 36 37 36 36 36 36 36 36 35 36 36 36 36 36 36 36 35 35 35 36 36 37 37 37 37 38 38 39 39 39 39 39 39 40 40 39 38 38 37 36 36 37 37
34 34 34 34 35 36 37 36 35 36 37 36 36 36 36 37 37 37 37 37 36 36 36 35 35 35 36 37 38 38 38 38 39 39 40 40 40 41 41 41 41 42 41 40 40 39 39 38 38
34 35 35 34 34 35 37 36 35 36 36 36 36 37 37 37 37 37 38 37 37 36 36 36 36 36 36 37 38 39 39 39 40 40 41 41 41 42 42 42 41 43 43 42 41 41 40 39 39
34 35 35 35 35 36 36 36 35 35 36 36 36 36 36 35 36 37 37 37 37 37 37 37 37 37 37 38 38 39 40 41 41 41 41 42 42 43 43 43 42 43 44 44 43 40 39 40 39
33 34 34 34 35 35 35 35 34 35 35 36 36 36 35 35 35 36 36 36 36 36 37 37 38 38 38 38 38 39 40 41 42 42 43 43 43 44 44 43 43 43 43 44 44 42 40 40 40
33 34 33 34 34 35 35 35 35 34 35 36 36 36 35 35 35 35 35 35 35 36 36 37 37 38 38 39 39 40 41 41 42 43 43 44 44 44 44 44 44 45 44 44 45 44 42 41 41
32 32 31 32 32 34 35 35 34 34 34 35 36 36 36 36 35 35 35 35 35 36 36 36 37 37 38 39 40 41 42 42 42 43 43 43 44 44 45 45 45 45 45 45 45 44 44 43 42
30 30 31 31 32 33 34 35 33 33 33 34 34 35 36 36 36 36 35 35 36 36 36 36 36 37 37 38 39 40 41 42 43 43 43 44 44 44 44 44 45 45 46 46 46 45 45 44 43
28 29 30 30 31 32 33 35 33 33 32 32 32 33 34 35 36 36 35 35 36 36 37 36 36 37 37 37 37 38 40 42 43 44 44 44 44 45 45 45 45 46 46 46 46 46 46 45 45
28 28 29 30 31 32 31 33 33 31 31 31 31 31 32 33 34 35 35 35 35 35 36 37 37 37 37 37 37 37 38 40 42 43 45 45 44 45 45 45 46 46 46 46 46 47 47 46 46
27 28 29 30 30 31 30 32 32 30 29 29 29 30 30 31 32 33 33 33 34 35 35 36 37 37 36 37 38 38 38 39 40 41 42 43 44 45 45 45 45 46 46 46 47 48 48 47 47
26 27 28 28 29 30 29 30 29 27 27 27 27 28 29 30 31 31 32 33 33 34 35 35 36 36 37 37 37 38 39 39 40 40 41 42 43 44 45 46 46 46 46 46 47 47 48 48 48
26 26 26 26 28 28 29 29 28 26 25 24 25 26 27 28 29 30 31 32 33 34 35 36 36 36 37 38 38 39 40 40 40 40 41 42 42 43 44 45 46 46 45 46 46 48 48 48 48
25 25 25 25 26 27 28 28 28 25 24 24 25 25 26 27 29 31 32 33 33 35 36 36 37 37 37 38 38 39 39 40 40 41 41 41 41 41 41 43 44 44 45 45 46 46 47 47 47
25 25 25 25 26 27 28 28 27 27 26 26 27 27 27 28 29 30 31 33 34 34 35 36 36 36 36 37 38 39 39 40 40 40 40 40 41 41 41 41 42 43 44 45 45 46 46 47 47
24 25 26 26 27 28 29 29 26 27 27 27 27 28 29 29 30 31 32 32 33 34 34 35 35 35 36 36 37 37 38 38 39 39 39 39 40 40 41 42 42 43 43 44 44 44 45 46 47
Wind_Direction
248 248 249 250 251 251 251 252 252 252 255 255 255 254 254 256 257 259 259 258 257 258 258 257 256 256 255 254 252 251 250 250 249 249 250 249 248 249 250 251 252 252 252 252 251 250 251 250 251
250 250 251 252 252 252 252 253 253 254 255 256 256 256 257 259 259 260 258 258 258 260 260 258 257 255 254 253 251 250 249 249 250 251 252 251 250 251 251 253 252 252 252 253 254 253 253 252 251
252 252 253 253 253 254 253 253 252 252 253 255 256 258 259 259 260 260 259 259 259 259 259 258 257 255 254 252 251 250 249 249 250 250 251 251 250 251 252 253 253 253 253 254 255 255 255 255 253
254 254 255 255 256 256 256 255 253 253 253 255 258 260 261 260 260 261 262 262 261 260 259 258 257 255 253 252 251 250 249 249 250 250 250 251 251 251 251 253 254 255 255 255 256 257 257 257 255
255 255 256 256 258 258 257 256 255 255 254 256 259 261 262 262 262 263 263 262 261 259 259 258 257 256 254 252 251 249 248 248 249 250 250 251 252 253 252 252 254 255 255 255 256 257 257 257 257
255 256 257 258 258 257 256 256 255 257 258 258 259 261 262 263 263 263 263 262 260 258 258 258 257 256 255 253 251 250 249 248 248 249 249 251 252 253 254 253 254 255 256 255 256 257 258 258 258
257 257 259 258 256 257 258 257 257 258 258 259 260 261 262 262 263 263 263 262 260 259 257 257 257 256 255 254 252 250 250 249 248 249 249 250 252 253 253 254 255 256 258 257 255 257 258 259 261
259 259 259 258 257 258 258 257 258 258 259 260 260 261 261 261 261 261 261 261 260 260 259 257 256 256 255 254 253 251 250 249 248 249 249 249 251 252 252 254 256 257 258 258 258 256 258 258 260
258 258 259 259 259 259 259 259 259 259 260 260 261 261 261 261 260 260 259 259 260 260 260 258 257 256 255 255 255 253 251 249 248 249 249 249 250 251 252 253 256 257 257 257 257 258 257 257 259
259 259 260 260 261 260 260 260 261 260 259 260 261 261 261 261 260 260 259 259 260 260 260 259 257 257 256 255 254 254 251 249 249 248 248 248 249 251 251 252 254 257 257 256 257 257 258 258 258
260 261 261 261 263 262 261 261 261 261 260 260 260 262 263 262 261 261 261 261 260 260 259 259 258 257 256 255 254 253 251 249 248 248 247 248 249 251 252 252 255 256 256 256 257 259 259 259 259
262 262 262 261 263 263 263 262 262 262 261 260 260 261 263 263 261 261 261 261 260 260 260 259 258 257 256 254 253 252 252 250 249 249 248 249 249 249 251 252 254 256 257 258 258 259 258 259 260
264 264 263 263 263 263 263 263 262 262 261 260 260 260 261 261 261 261 261 261 261 260 260 258 258 257 256 254 252 252 251 251 250 250 249 248 250 250 251 252 255 256 257 258 258 258 259 260 260
266 266 265 264 264 263 263 262 262 263 263 261 260 260 260 259 259 260 261 261 260 259 259 258 257 257 255 254 252 251 250 249 250 250 250 249 250 251 252 253 255 256 258 258 258 259 259 260 261
268 267 266 265 264 264 264 262 263 262 261 261 261 260 260 259 259 259 261 261 260 259 258 258 258 256 254 252 252 252 251 250 250 250 250 251 251 252 253 253 254 255 257 258 259 259 261 261 262
270 269 269 267 265 264 264 264 263 262 261 261 260 259 259 259 259 259 259 260 259 259 259 258 258 256 255 253 251 252 252 251 250 251 251 251 251 252 253 254 254 255 257 258 258 259 260 260 261
271 270 269 267 266 266 265 265 263 262 262 261 259 259 259 259 259 259 259 259 258 258 259 258 258 257 256 254 253 253 252 252 252 252 252 252 252 253 254 254 255 256 256 256 258 258 259 260 260
273 271 270 269 268 267 266 265 264 263 262 260 258 258 258 259 258 259 259 258 258 258 258 258 258 257 257 256 255 254 254 253 253 253 253 253 253 254 254 256 256 256 256 257 258 259 259 260 259
272 271 270 269 268 267 266 264 263 263 262 260 258 258 257 257 258 258 259 260 260 259 258 258 258 257 256 256 255 255 254 254 254 254 254 254 254 254 255 257 257 257 258 259 258 259 260 259 259
273 272 271 268 266 266 265 264 263 263 262 260 258 258 257 256 257 259 260 260 260 259 258 258 258 258 256 256 256 256 255 254 255 255 255 255 255 256 256 257 257 257 258 258 259 260 260 261 260
273 272 270 268 265 265 267 265 265 265 263 260 258 257 257 257 257 258 259 259 258 258 258 259 258 258 258 257 257 257 256 256 255 255 255 256 255 256 257 257 257 258 258 259 259 260 260 261 260
274 272 270 269 268 268 268 269 267 268 266 263 259 257 257 257 257 258 258 258 258 258 258 258 257 257 258 259 258 257 256 256 256 256 256 256 256 256 257 257 256 257 258 259 259 259 260 260 260
274 272 271 269 269 269 270 271 270 270 269 265 261 259 257 256 257 257 257 257 258 257 257 258 257 257 258 258 258 258 257 257 257 258 258 257 257 257 257 258 257 257 258 258 259 259 260 261 261
275 274 272 270 270 271 272 273 272 272 271 267 263 260 258 256 256 257 258 259 259 258 258 258 258 258 257 257 257 258 259 258 258 259 259 258 258 258 258 259 258 258 258 258 259 260 260 261 262
276 275 273 273 272 274 275 274 275 273 270 266 264 262 260 257 256 257 259 260 260 260 260 259 259 259 258 257 257 258 259 260 260 260 259 258 257 258 258 258 258 258 258 258 259 260 261 262 263
278 277 277 276 276 276 275 274 275 274 268 265 264 263 261 258 257 258 259 260 261 261 261 261 261 260 260 259 260 260 260 260 260 260 259 259 259 258 258 258 259 258 258 259 259 260 261 262 263
279 279 279 277 276 277 277 275 273 274 271 268 266 264 262 261 260 260 260 261 263 264 263 263 262 261 261 260 260 260 260 260 260 260 260 260 260 259 259 259 259 258 258 259 260 260 261 262 263
282 282 280 277 278 278 277 274 274 272 270 267 266 264 263 263 263 262 263 263 263 264 264 264 263 262 261 261 261 261 261 261 261 261 261 260 260 260 260 259 259 259 259 259 260 261 261 262 263
282 281 279 277 274 275 275 275 275 272 271 270 267 266 265 265 264 264 264 264 263 264 265 266 264 262 262 262 262 262 262 261 261 261 260 260 260 260 261 261 261 260 260 261 261 261 262 263 263
282 281 279 275 273 272 274 275 275 273 272 272 271 269 268 267 267 267 267 267 266 267 267 266 265 264 263 263 263 263 263 262 262 261 261 261 262 262 262 261 261 261 260 261 261 262 263 263 264
Height
5820 5821 5822 5823 5825 5825 5826 5827 5827 5828 5828 5829 5829 5830 5831 5832 5833 5836 5836 5834 5834 5835 5835 5836 5836 5836 5837 5837 5838 5839 5840 5840 5841 5842 5842 5843 5844 5844 5845 5846 5846 5846 5847 5847 5847 5848 5848 5849 5849
5815 5817 5818 5819 5820 5821 5822 5822 5823 5824 5824 5825 5825 5826 5827 5827 5828 5829 5829 5830 5830 5831 5831 5832 5832 5832 5833 5833 5834 5835 5836 5837 5838 5839 5839 5840 5841 5842 5842 5843 5843 5844 5844 5845 5845 5846 5846 5846 5847
5811 5812 5814 5814 5815 5817 5818 5818 5819 5819 5820 5820 5821 5822 5823 5823 5823 5824 5824 5825 5826 5826 5826 5827 5827 5828 5828 5829 5830 5831 5832 5833 5834 5835 5836 5837 5838 5838 5839 5840 5840 5841 5841 5842 5842 5843 5843 5844 5844
5807 5808 5809 5810 5811 5813 5813 5814 5814 5815 5815 5816 5816 5817 5818 5819 5819 5820 5820 5820 5821 5821 5822 5822 5822 5823 5824 5824 5826 5827 5828 5829 5831 5832 5832 5833 5834 5835 5836 5836 5837 5837 5838 5838 5839 5840 5840 5841 5842
5801 5802 5804 5805 5806 5807 5808 5808 5808 5809 5810 5811 5812 5812 5813 5813 5814 5814 5814 5815 5815 5816 5816 5817 5817 5818 5819 5819 5821 5822 5824 5825 5826 5827 5828 5829 5830 5831 5832 5832 5833 5833 5834 5835 5836 5836 5837 5837 5838
5797 5797 5799 5800 5801 5802 5802 5803 5803 5804 5804 5805 5806 5807 5808 5808 5808 5809 5809 5809 5809 5810 5810 5811 5811 5812 5813 5814 5815 5817 5818 5820 5821 5822 5824 5825 5826 5827 5828 5828 5829 5830 5830 5831 5832 5832 5833 5834 5834
5792 5792 5793 5794 5795 5796 5797 5796 5797 5798 5798 5800 5800 5801 5802 5802 5803 5803 5803 5803 5803 5804 5804 5805 5806 5807 5808 5809 5810 5811 5813 5814 5816 5817 5819 5820 5822 5823 5823 5824 5825 5825 5826 5826 5827 5828 5828 5829 5830
5785 5786 5787 5788 5789 5790 5790 5790 5791 5791 5792 5793 5794 5795 5795 5796 5796 5797 5797 5797 5797 5797 5798 5799 5800 5800 5802 5803 5804 5805 5807 5808 5810 5811 5813 5815 5816 5817 5819 5819 5820 5821 5821 5822 5822 5823 5824 5825 5825
5779 5781 5781 5782 5783 5784 5784 5784 5784 5785 5786 5786 5787 5788 5788 5789 5789 5790 5790 5791 5791 5791 5791 5792 5793 5794 5795 5796 5797 5799 5800 5802 5804 5805 5807 5809 5810 5811 5813 5814 5815 5815 5816 5817 5817 5817 5819 5820 5820
5772 5773 5775 5776 5776 5777 5777 5777 5777 5778 5778 5779 5779 5780 5780 5781 5782 5783 5783 5783 5784 5784 5784 5785 5785 5786 5787 5789 5790 5792 5793 5795 5797 5799 5800 5802 5803 5805 5806 5808 5809 5809 5810 5811 5812 5812 5813 5814 5815
5765 5766 5768 5768 5768 5769 5769 5769 5770 5770 5771 5772 5772 5772 5772 5773 5774 5775 5775 5776 5776 5776 5777 5777 5777 5778 5779 5781 5783 5784 5786 5788 5790 5792 5794 5795 5797 5798 5800 5801 5802 5803 5804 5804 5805 5806 5807 5808 5809
5758 5759 5760 5761 5761 5761 5761 5762 5762 5762 5763 5763 5764 5764 5765 5765 5766 5766 5767 5767 5768 5768 5769 5769 5769 5770 5771 5773 5774 5776 5778 5780 5782 5784 5786 5788 5789 5791 5793 5795 5796 5797 5798 5798 5799 5800 5801 5802 5802
5750 5751 5752 5752 5752 5753 5753 5753 5754 5754 5755 5755 5755 5756 5757 5757 5758 5758 5758 5759 5759 5760 5760 5760 5761 5761 5762 5764 5766 5768 5770 5772 5774 5776 5779 5780 5782 5784 5785 5787 5788 5790 5791 5791 5792 5793 5793 5794 5795
5742 5742 5743 5744 5743 5743 5744 5744 5745 5747 5746 5747 5747 5748 5748 5748 5749 5750 5750 5750 5751 5751 5752 5752 5752 5753 5754 5756 5758 5761 5763 5764 5766 5769 5771 5773 5774 5776 5778 5779 5780 5782 5783 5784 5785 5786 5786 5787 5788
5733 5734 5734 5735 5734 5734 5734 5735 5736 5737 5737 5737 5738 5738 5739 5739 5740 5741 5741 5742 5742 5742 5743 5744 5744 5745 5746 5748 5750 5752 5754 5756 5758 5760 5762 5764 5766 5768 5769 5771 5772 5774 5775 5776 5777 5778 5778 5779 5780
5724 5724 5725 5726 5725 5724 5725 5727 5728 5726 5727 5728 5729 5729 5730 5730 5731 5732 5732 5733 5733 5734 5734 5735 5736 5737 5738 5740 5742 5744 5746 5748 5750 5752 5753 5755 5757 5759 5761 5762 5764 5765 5766 5767 5768 5769 5770 5770 5771
5715 5715 5715 5716 5715 5715 5715 5717 5718 5717 5717 5718 5719 5719 5720 5721 5721 5722 5723 5723 5724 5725 5725 5726 5727 5728 5729 5731 5733 5735 5737 5739 5741 5743 5744 5746 5748 5750 5751 5753 5754 5756 5757 5758 5759 5760 5761 5761 5762
5706 5705 5706 5706 5705 5705 5705 5707 5708 5707 5708 5708 5709 5710 5710 5711 5712 5712 5713 5714 5715 5716 5716 5717 5718 5719 5721 5723 5724 5726 5728 5730 5732 5733 5735 5737 5739 5740 5742 5743 5745 5746 5747 5749 5750 5751 5751 5753 5753
5696 5696 5696 5696 5695 5694 5695 5696 5698 5698 5698 5699 5699 5700 5701 5702 5702 5703 5704 5704 5705 5706 5707 5708 5709 5710 5712 5713 5715 5717 5719 5720 5722 5723 5725 5727 5729 5730 5732 5734 5735 5737 5738 5739 5740 5741 5742 5743 5744
5686 5686 5686 5686 5685 5684 5684 5686 5688 5688 5688 5689 5690 5691 5692 5693 5693 5694 5695 5696 5697 5697 5698 5699 5700 5701 5702 5704 5705 5707 5708 5710 5712 5714 5715 5717 5719 5721 5722 5724 5725 5727 5728 5729 5731 5732 5733 5733 5734
5677 5676 5676 5676 5675 5674 5674 5676 5679 5679 5678 5679 5680 5681 5682 5683 5684 5684 5686 5687 5687 5688 5689 5690 5691 5692 5693 5694 5695 5696 5698 5700 5701 5703 5705 5707 5708 5710 5712 5714 5715 5716 5718 5719 5720 5721 5723 5724 5724
5669 5668 5667 5667 5666 5666 5666 5664 5669 5669 5669 5669 5670 5671 5672 5673 5674 5675 5676 5677 5678 5679 5680 5681 5682 5683 5683 5684 5685 5686 5688 5689 5691 5692 5694 5696 5698 5699 5701 5703 5704 5705 5707 5708 5710 5711 5712 5713 5714
5660 5659 5659 5658 5657 5657 5657 5655 5659 5659 5659 5660 5661 5661 5662 5663 5664 5665 5667 5668 5669 5669 5671 5671 5672 5673 5674 5675 5676 5676 5678 5679 5680 5682 5683 5685 5687 5688 5690 5692 5693 5694 5696 5697 5699 5700 5701 5702 5703
5652 5651 5650 5649 5648 5649 5649 5646 5648 5650 5650 5651 5651 5651 5652 5653 5655 5656 5657 5658 5659 5660 5661 5662 5662 5663 5664 5665 5666 5667 5668 5669 5670 5671 5672 5674 5675 5677 5679 5680 5681 5683 5684 5686 5687 5689 5690 5691 5692
5644 5643 5642 5640 5640 5640 5640 5638 5640 5642 5641 5641 5642 5643 5643 5644 5645 5646 5647 5648 5649 5650 5651 5652 5652 5653 5654 5655 5656 5656 5657 5658 5659 5660 5661 5662 5664 5665 5667 5668 5670 5671 5673 5674 5676 5677 5678 5679 5680
5637 5636 5635 5633 5632 5632 5632 5630 5633 5633 5633 5633 5633 5634 5635 5635 5636 5637 5638 5639 5640 5641 5641 5642 5642 5643 5644 5644 5645 5646 5647 5647 5648 5649 5650 5650 5652 5653 5655 5656 5658 5659 5661 5662 5664 5665 5666 5667 5669
5629 5628 5627 5625 5623 5623 5623 5623 5625 5625 5625 5625 5626 5626 5626 5627 5628 5629 5629 5630 5630 5631 5632 5632 5633 5633 5633 5634 5635 5635 5636 5637 5637 5638 5639 5639 5640 5641 5642 5644 5646 5647 5649 5650 5651 5653 5654 5655 5657
5623 5621 5620 5618 5616 5614 5615 5615 5617 5617 5617 5617 5617 5617 5617 5618 5619 5620 5620 5620 5621 5621 5621 5622 5622 5622 5623 5623 5623 5624 5625 5626 5626 5627 5628 5628 5629 5630 5631 5632 5633 5635 5636 5638 5639 5641 5642 5643 5645
5616 5615 5612 5610 5609 5608 5607 5610 5610 5609 5609 5609 5609 5609 5610 5610 5610 5610 5610 5611 5611 5611 5611 5611 5611 5612 5612 5612 5613 5613 5614 5615 5615 5616 5616 5617 5618 5619 5620 5621 5622 5623 5625 5626 5627 5628 5629 5631 5632
5609 5607 5605 5604 5603 5601 5599 5603 5603 5601 5601 5601 5601 5601 5601 5601 5601 5601 5601 5601 5601 5601 5601 5601 5601 5601 5602 5602 5602 5602 5603 5604 5604 5605 5606 5606 5607 5608 5609 5609 5610 5611 5612 5614 5615 5616 5617 5618 5619